SNAP-3 JIMI

Last updated on Wed Oct 29 2025 00:03:53 GMT+0000 (Coordinated Universal Time)

1 40975U 15058M 25301.15970421 .00006780 00000+0 49477-3 0 9998 2 40975 64.7658 232.1440 0119861 149.6888 211.1233 14.98846295 79408
UTC large
Height (km)
Speed (km/s)
/
Latitude / Longitude
Inclination (degrees)
Orbital Period (minutes)
Azimuth
Elevation
Range (km)
Doppler Factor

Next 0 passes for location: London (51.5072 / 0.1276)

Sorry there are no passes over London.